| time (UTC) | temp F | wind direction | speed knots | gust knots | rain 1hr in | rain 24hr in | rain mn in | humidity % | barometer mb |
| 20260903165349 | 80 | 349 | 0.9 | 0.9 | 0.00 | 0.02 | 0.02 | 84 | 1014.8 |
| 20260903164844 | 77 | 354 | 0.0 | 0.0 | 0.00 | 0.02 | 0.02 | 90 | 1014.9 |
| 20260903164339 | 76 | 353 | 0.0 | 0.0 | 0.00 | 0.02 | 0.02 | 90 | 1015.0 |
| 20260903163838 | 77 | 347 | 0.0 | 0.0 | 0.00 | 0.02 | 0.02 | 88 | 1015.1 |
| 20260903163335 | 77 | 346 | 0.0 | 0.0 | 0.00 | 0.02 | 0.02 | 85 | 1015.2 |
| 20260903162831 | 78 | 348 | 0.0 | 0.0 | 0.00 | 0.02 | 0.02 | 86 | 1015.2 |
| 20260903162327 | 79 | 341 | 0.0 | 0.9 | 0.00 | 0.02 | 0.02 | 85 | 1015.3 |
| 20260903161822 | 79 | 40 | 0.9 | 0.9 | 0.00 | 0.02 | 0.02 | 88 | 1015.4 |
| 20260903161318 | 77 | 339 | 0.0 | 0.0 | 0.00 | 0.02 | 0.02 | 90 | 1015.5 |
| 20260903160814 | 77 | 348 | 0.0 | 0.0 | 0.00 | 0.02 | 0.02 | 89 | 1015.4 |
| 20260903160312 | 78 | 356 | 0.0 | 0.0 | 0.00 | 0.02 | 0.02 | 86 | 1015.4 |
| 20260903155811 | 78 | 356 | 0.0 | 0.0 | 0.00 | 0.02 | 0.02 | 85 | 1015.7 |
| 20260903155307 | 78 | 356 | 0.0 | 0.0 | 0.00 | 0.02 | 0.02 | 88 | 1015.8 |
| 20260903154801 | 78 | 359 | 0.0 | 0.0 | 0.00 | 0.02 | 0.02 | 86 | 1015.9 |
| 20260903154258 | 78 | 9 | 0.0 | 0.0 | 0.00 | 0.02 | 0.02 | 86 | 1015.9 |
| 20260903153753 | 77 | 344 | 0.0 | 0.0 | 0.00 | 0.02 | 0.02 | 87 | 1015.9 |
| 20260903153249 | 77 | 340 | 0.9 | 0.9 | 0.00 | 0.02 | 0.02 | 87 | 1015.8 |
| 20260903152745 | 78 | 331 | 0.9 | 1.7 | 0.00 | 0.02 | 0.02 | 87 | 1015.4 |
| 20260903152241 | 77 | 1 | 0.0 | 0.0 | 0.00 | 0.02 | 0.02 | 87 | 1015.6 |
| 20260903151741 | 77 | 330 | 1.7 | 1.7 | 0.00 | 0.02 | 0.02 | 86 | 1015.9 |
| 20260903151236 | 78 | 336 | 2.6 | 2.6 | 0.00 | 0.02 | 0.02 | 85 | 1015.8 |
| 20260903150731 | 77 | 351 | 0.9 | 0.9 | 0.00 | 0.02 | 0.02 | 87 | 1015.5 |
| 20260903150225 | 77 | 326 | 0.9 | 1.7 | 0.00 | 0.02 | 0.02 | 90 | 1015.6 |
| 20260903145725 | 75 | 345 | 1.7 | 1.7 | 0.00 | 0.02 | 0.02 | 91 | 1016.0 |
| 20260903145220 | 75 | 1 | 0.0 | 0.0 | 0.00 | 0.02 | 0.02 | 92 | 1015.9 |
| 20260903144719 | 75 | 25 | 0.0 | 0.0 | 0.00 | 0.02 | 0.02 | 92 | 1015.8 |
| 20260903144215 | 76 | 8 | 0.9 | 1.7 | 0.00 | 0.02 | 0.02 | 92 | 1016.0 |
| 20260903143711 | 76 | 359 | 0.0 | 0.9 | 0.00 | 0.02 | 0.02 | 92 | 1015.3 |
| 20260903143207 | 75 | 3 | 0.0 | 0.9 | 0.00 | 0.02 | 0.02 | 96 | 1015.2 |
| 20260903142702 | 74 | 8 | 0.0 | 0.0 | 0.00 | 0.02 | 0.02 | 98 | 1015.1 |
| 20260903142158 | 73 | 7 | 0.0 | 0.0 | 0.00 | 0.02 | 0.02 | 98 | 1015.4 |
| 20260903141654 | 73 | 7 | 0.9 | 0.9 | 0.00 | 0.02 | 0.02 | 97 | 1015.0 |
| 20260903141149 | 74 | 8 | 0.0 | 0.0 | 0.00 | 0.02 | 0.02 | 98 | 1015.4 |
| 20260903140644 | 74 | 8 | 0.0 | 0.0 | 0.00 | 0.02 | 0.02 | 98 | 1015.3 |
| 20260903140139 | 74 | 8 | 0.0 | 0.0 | 0.00 | 0.02 | 0.02 | 98 | 1015.1 |
| 20260903135635 | 73 | 8 | 0.0 | 0.0 | 0.12 | 0.02 | 0.02 | 99 | 1015.1 |
| 20260903135130 | 73 | 8 | 0.0 | 0.0 | 0.12 | 0.02 | 0.02 | 98 | 1015.0 |
| 20260903134629 | 73 | 8 | 0.0 | 0.0 | 0.00 | 0.00 | 0.00 | 95 | 1014.8 |
| 20260903134125 | 74 | 5 | 0.0 | 0.0 | 0.00 | 0.00 | 0.00 | 95 | 1015.2 |
| 20260903133623 | 74 | 6 | 0.0 | 0.0 | 0.00 | 0.00 | 0.00 | 95 | 1015.1 |
| 20260903133119 | 73 | 6 | 0.0 | 0.0 | 0.00 | 0.00 | 0.00 | 96 | 1015.1 |
| 20260903132613 | 73 | 6 | 0.0 | 0.0 | 0.00 | 0.00 | 0.00 | 95 | 1015.1 |
| 20260903132108 | 73 | 7 | 0.0 | 0.0 | 0.00 | 0.00 | 0.00 | 94 | 1015.2 |
| 20260903131607 | 73 | 359 | 0.0 | 0.0 | 0.00 | 0.00 | 0.00 | 95 | 1015.6 |
| 20260903131106 | 73 | 1 | 0.0 | 0.0 | 0.00 | 0.00 | 0.00 | 95 | 1015.4 |
| 20260903130601 | 73 | 1 | 0.0 | 0.0 | 0.00 | 0.00 | 0.00 | 96 | 1015.4 |
| 20260903130056 | 72 | 5 | 0.0 | 0.0 | 0.00 | 0.00 | 0.00 | 97 | 1015.2 |
| 20260903125554 | 71 | 1 | 0.0 | 0.9 | 0.00 | 0.00 | 0.00 | 98 | 1015.1 |
| 20260903125050 | 71 | 358 | 0.0 | 0.0 | 0.00 | 0.00 | 0.00 | 99 | 1015.3 |
| 20260903124544 | 71 | 358 | 0.0 | 0.0 | 0.00 | 0.00 | 0.00 | 99 | 1015.6 |
| 20260903124039 | 71 | 358 | 0.0 | 0.0 | 0.00 | 0.00 | 0.00 | 99 | 1015.7 |
| 20260903123538 | 71 | 358 | 0.0 | 0.0 | 0.00 | 0.00 | 0.00 | 99 | 1015.6 |
| 20260903123037 | 71 | 358 | 0.0 | 0.0 | 0.00 | 0.00 | 0.00 | 99 | 1015.9 |
| 20260903122536 | 70 | 358 | 0.0 | 0.0 | 0.00 | 0.00 | 0.00 | 99 | 1015.8 |
| 20260903122031 | 70 | 358 | 0.0 | 0.0 | 0.00 | 0.00 | 0.00 | 99 | 1016.0 |
| 20260903121526 | 70 | 358 | 0.0 | 0.0 | 0.00 | 0.00 | 0.00 | 99 | 1015.9 |
| 20260903121022 | 70 | 358 | 0.0 | 0.0 | 0.00 | 0.00 | 0.00 | 99 | 1016.1 |
| 20260903120520 | 70 | 10 | 0.9 | 0.9 | 0.00 | 0.00 | 0.00 | 99 | 1016.1 |
| 20260903120015 | 70 | 355 | 0.0 | 0.0 | 0.00 | 0.00 | 0.00 | 99 | 1016.4 |
| 20260903115514 | 70 | 355 | 0.0 | 0.0 | 0.00 | 0.00 | 0.00 | 99 | 1016.4 |
| 20260903115013 | 70 | 354 | 0.0 | 0.0 | 0.00 | 0.00 | 0.00 | 99 | 1016.1 |
| 20260903114509 | 69 | 355 | 0.0 | 0.0 | 0.00 | 0.00 | 0.00 | 99 | 1015.9 |
| 20260903114004 | 69 | 3 | 0.0 | 0.9 | 0.00 | 0.00 | 0.00 | 99 | 1016.0 |
| 20260903113455 | 69 | 357 | 0.0 | 0.0 | 0.00 | 0.00 | 0.00 | 99 | 1015.9 |
| 20260903112950 | 69 | 7 | 0.9 | 0.9 | 0.00 | 0.00 | 0.00 | 99 | 1016.0 |
| 20260903112446 | 69 | 6 | 0.0 | 0.0 | 0.00 | 0.00 | 0.00 | 99 | 1015.8 |
| 20260903111945 | 69 | 357 | 0.0 | 0.0 | 0.00 | 0.00 | 0.00 | 99 | 1015.9 |
| 20260903111444 | 69 | 355 | 0.9 | 0.9 | 0.00 | 0.00 | 0.00 | 99 | 1015.6 |
| 20260903110941 | 69 | 357 | 0.0 | 0.0 | 0.00 | 0.00 | 0.00 | 99 | 1015.6 |
| 20260903110437 | 69 | 355 | 0.0 | 0.9 | 0.00 | 0.00 | 0.00 | 99 | 1015.4 |
| 20260903105931 | 69 | 356 | 0.0 | 0.0 | 0.00 | 0.00 | 0.00 | 99 | 1015.5 |
| 20260903105426 | 69 | 358 | 0.9 | 0.9 | 0.00 | 0.00 | 0.00 | 99 | 1015.1 |
| 20260903104926 | 69 | 356 | 0.0 | 0.9 | 0.00 | 0.00 | 0.00 | 99 | 1015.3 |
| 20260903104420 | 68 | 1 | 0.0 | 0.0 | 0.00 | 0.00 | 0.00 | 99 | 1015.1 |
| 20260903103917 | 68 | 0 | 0.0 | 0.0 | 0.00 | 0.00 | 0.00 | 99 | 1014.8 |
| 20260903103413 | 67 | 358 | 0.9 | 0.9 | 0.00 | 0.00 | 0.00 | 99 | 1014.9 |
| 20260903102908 | 67 | 359 | 0.0 | 0.9 | 0.00 | 0.00 | 0.00 | 99 | 1014.7 |
| 20260903102402 | 67 | 358 | 0.0 | 0.0 | 0.00 | 0.00 | 0.00 | 99 | 1014.4 |
| 20260903101902 | 67 | 358 | 0.0 | 0.0 | 0.00 | 0.00 | 0.00 | 99 | 1014.0 |
| 20260903101357 | 67 | 358 | 0.0 | 0.0 | 0.00 | 0.00 | 0.00 | 99 | 1014.0 |
| 20260903100853 | 67 | 358 | 0.0 | 0.0 | 0.00 | 0.00 | 0.00 | 99 | 1013.6 |
| 20260903100348 | 67 | 358 | 0.0 | 0.0 | 0.00 | 0.00 | 0.00 | 99 | 1013.3 |
| 20260903095844 | 66 | 358 | 0.0 | 0.0 | 0.00 | 0.00 | 0.00 | 99 | 1013.3 |
| 20260903095344 | 67 | 358 | 0.0 | 0.0 | 0.00 | 0.00 | 0.00 | 99 | 1013.4 |
| 20260903094840 | 67 | 358 | 0.0 | 0.0 | 0.00 | 0.00 | 0.00 | 99 | 1013.2 |
| 20260903094334 | 67 | 358 | 0.0 | 0.0 | 0.00 | 0.00 | 0.00 | 99 | 1013.1 |
| 20260903093830 | 67 | 358 | 0.0 | 0.0 | 0.00 | 0.00 | 0.00 | 99 | 1013.0 |
| 20260903093325 | 66 | 358 | 0.0 | 0.0 | 0.00 | 0.00 | 0.00 | 99 | 1013.0 |
| 20260903092820 | 66 | 358 | 0.0 | 0.0 | 0.00 | 0.00 | 0.00 | 99 | 1013.2 |
| 20260903092315 | 66 | 358 | 0.0 | 0.0 | 0.00 | 0.00 | 0.00 | 99 | 1013.2 |
| 20260903091813 | 66 | 358 | 0.0 | 0.0 | 0.00 | 0.00 | 0.00 | 99 | 1013.0 |
| 20260903091308 | 66 | 358 | 0.0 | 0.0 | 0.00 | 0.00 | 0.00 | 99 | 1012.9 |
| 20260903090804 | 67 | 358 | 0.0 | 0.0 | 0.00 | 0.00 | 0.00 | 99 | 1013.0 |
| 20260903090303 | 67 | 358 | 0.0 | 0.0 | 0.00 | 0.00 | 0.00 | 99 | 1012.9 |
| 20260903085802 | 67 | 358 | 0.0 | 0.0 | 0.00 | 0.00 | 0.00 | 99 | 1013.1 |
| 20260903085256 | 67 | 358 | 0.0 | 0.0 | 0.00 | 0.00 | 0.00 | 99 | 1013.2 |
| 20260903084754 | 67 | 358 | 0.0 | 0.0 | 0.00 | 0.00 | 0.00 | 99 | 1013.2 |
| 20260903084249 | 67 | 358 | 0.0 | 0.0 | 0.00 | 0.00 | 0.00 | 99 | 1013.3 |
| 20260903083744 | 67 | 358 | 0.0 | 0.0 | 0.00 | 0.00 | 0.00 | 99 | 1013.0 |
| 20260903083243 | 67 | 358 | 0.0 | 0.0 | 0.00 | 0.00 | 0.00 | 99 | 1012.8 |
| 20260903082743 | 67 | 358 | 0.0 | 0.0 | 0.00 | 0.00 | 0.00 | 99 | 1012.7 |
| 20260903082239 | 67 | 358 | 0.0 | 0.0 | 0.00 | 0.00 | 0.00 | 99 | 1013.0 |
| 20260903081739 | 67 | 358 | 0.0 | 0.0 | 0.00 | 0.00 | 0.00 | 99 | 1012.9 |
| 20260903081235 | 67 | 358 | 0.0 | 0.0 | 0.00 | 0.00 | 0.00 | 99 | 1013.0 |
| 20260903080731 | 67 | 358 | 0.0 | 0.0 | 0.00 | 0.00 | 0.00 | 99 | 1013.2 |
| 20260903080228 | 67 | 358 | 0.0 | 0.0 | 0.00 | 0.00 | 0.00 | 99 | 1012.7 |
| 20260903075728 | 67 | 358 | 0.0 | 0.0 | 0.00 | 0.00 | 0.00 | 99 | 1012.7 |
| 20260903075223 | 67 | 358 | 0.0 | 0.0 | 0.00 | 0.00 | 0.00 | 99 | 1012.8 |
| 20260903074722 | 67 | 358 | 0.0 | 0.0 | 0.00 | 0.00 | 0.00 | 99 | 1012.9 |
| 20260903074218 | 67 | 358 | 0.0 | 0.0 | 0.00 | 0.00 | 0.00 | 99 | 1012.6 |
| 20260903073713 | 68 | 358 | 0.0 | 0.0 | 0.00 | 0.00 | 0.00 | 99 | 1012.9 |
| 20260903073208 | 68 | 358 | 0.0 | 0.0 | 0.00 | 0.00 | 0.00 | 99 | 1012.9 |
| 20260903072703 | 68 | 358 | 0.0 | 0.0 | 0.00 | 0.00 | 0.00 | 99 | 1012.9 |
| 20260903072200 | 68 | 358 | 0.0 | 0.0 | 0.00 | 0.00 | 0.00 | 99 | 1013.1 |
| 20260903071655 | 68 | 358 | 0.0 | 0.0 | 0.00 | 0.00 | 0.00 | 99 | 1013.0 |
| 20260903071151 | 68 | 358 | 0.0 | 0.0 | 0.00 | 0.00 | 0.00 | 99 | 1013.0 |
| 20260903070646 | 67 | 358 | 0.0 | 0.0 | 0.00 | 0.00 | 0.00 | 99 | 1012.9 |
| 20260903070142 | 67 | 358 | 0.0 | 0.0 | 0.00 | 0.00 | 0.00 | 99 | 1013.0 |
| 20260903065641 | 67 | 358 | 0.0 | 0.0 | 0.00 | 0.00 | 0.00 | 99 | 1013.0 |
| 20260903065136 | 67 | 358 | 0.0 | 0.0 | 0.00 | 0.00 | 0.00 | 99 | 1013.0 |
| 20260903064635 | 67 | 358 | 0.0 | 0.0 | 0.00 | 0.00 | 0.00 | 99 | 1013.0 |
| 20260903064130 | 67 | 358 | 0.0 | 0.0 | 0.00 | 0.00 | 0.00 | 99 | 1012.9 |
| 20260903063626 | 68 | 358 | 0.0 | 0.0 | 0.00 | 0.00 | 0.00 | 99 | 1012.8 |
| 20260903063121 | 68 | 358 | 0.0 | 0.0 | 0.00 | 0.00 | 0.00 | 99 | 1012.7 |
| 20260903062617 | 68 | 358 | 0.0 | 0.0 | 0.00 | 0.00 | 0.00 | 99 | 1013.0 |
| 20260903062112 | 67 | 358 | 0.0 | 0.0 | 0.00 | 0.00 | 0.00 | 99 | 1012.9 |
| 20260903061607 | 67 | 358 | 0.0 | 0.0 | 0.00 | 0.00 | 0.00 | 99 | 1012.8 |
| 20260903061107 | 67 | 358 | 0.0 | 0.0 | 0.00 | 0.00 | 0.00 | 99 | 1012.8 |
| 20260903060606 | 68 | 358 | 0.0 | 0.0 | 0.00 | 0.00 | 0.00 | 99 | 1012.9 |
| 20260903055559 | 68 | 358 | 0.0 | 0.0 | 0.00 | 0.00 | 0.00 | 99 | 1012.9 |
| 20260903055057 | 68 | 358 | 0.0 | 0.0 | 0.00 | 0.00 | 0.00 | 99 | 1013.0 |
| 20260903054552 | 68 | 358 | 0.0 | 0.0 | 0.00 | 0.00 | 0.00 | 99 | 1013.1 |
| 20260903054049 | 69 | 358 | 0.0 | 0.0 | 0.00 | 0.00 | 0.00 | 99 | 1013.1 |
| 20260903053543 | 69 | 358 | 0.0 | 0.0 | 0.00 | 0.00 | 0.00 | 99 | 1013.0 |
| 20260903053040 | 68 | 358 | 0.0 | 0.0 | 0.00 | 0.00 | 0.00 | 99 | 1012.9 |
| 20260903052535 | 69 | 358 | 0.0 | 0.0 | 0.00 | 0.00 | 0.00 | 99 | 1013.0 |
| 20260903052031 | 69 | 358 | 0.0 | 0.0 | 0.00 | 0.00 | 0.00 | 99 | 1013.1 |
| 20260903051530 | 69 | 358 | 0.0 | 0.0 | 0.00 | 0.00 | 0.00 | 99 | 1013.1 |
| 20260903051027 | 69 | 358 | 0.0 | 0.0 | 0.00 | 0.00 | 0.00 | 99 | 1013.2 |
| 20260903050525 | 69 | 358 | 0.0 | 0.0 | 0.00 | 0.00 | 0.00 | 99 | 1013.1 |
| 20260903050021 | 70 | 358 | 0.0 | 0.0 | 0.00 | 0.00 | 0.00 | 99 | 1013.1 |
| 20260903045520 | 70 | 358 | 0.0 | 0.0 | 0.00 | 0.00 | 0.00 | 99 | 1013.4 |
| 20260903045017 | 70 | 358 | 0.0 | 0.0 | 0.00 | 0.00 | 0.00 | 99 | 1013.3 |
| 20260903044513 | 70 | 358 | 0.0 | 0.0 | 0.00 | 0.00 | 0.00 | 99 | 1013.3 |
| 20260903044008 | 70 | 358 | 0.0 | 0.0 | 0.00 | 0.00 | 0.00 | 99 | 1013.2 |
| 20260903043504 | 70 | 358 | 0.0 | 0.0 | 0.00 | 0.00 | 0.00 | 99 | 1013.3 |
| 20260903043002 | 70 | 358 | 0.0 | 0.0 | 0.00 | 0.00 | 0.00 | 99 | 1013.2 |
| 20260903042458 | 70 | 358 | 0.0 | 0.0 | 0.00 | 0.00 | 0.00 | 99 | 1013.3 |
| 20260903041953 | 70 | 358 | 0.0 | 0.0 | 0.00 | 0.00 | 0.00 | 99 | 1013.2 |
| 20260903041450 | 70 | 358 | 0.0 | 0.0 | 0.00 | 0.00 | 0.00 | 99 | 1013.4 |
| 20260903040945 | 70 | 358 | 0.0 | 0.0 | 0.00 | 0.00 | 0.00 | 99 | 1013.4 |
| 20260903040444 | 71 | 358 | 0.0 | 0.0 | 0.00 | 0.00 | 0.00 | 99 | 1013.5 |
| 20260903035941 | 71 | 358 | 0.0 | 0.0 | 0.00 | 0.00 | 0.00 | 99 | 1013.6 |
| 20260903035437 | 71 | 358 | 0.0 | 0.0 | 0.00 | 0.00 | 0.00 | 99 | 1013.4 |
| 20260903034932 | 71 | 358 | 0.0 | 0.0 | 0.00 | 0.00 | 0.00 | 99 | 1013.6 |
| 20260903034432 | 71 | 358 | 0.0 | 0.0 | 0.00 | 0.00 | 0.00 | 99 | 1013.6 |
| 20260903033927 | 71 | 358 | 0.0 | 0.0 | 0.00 | 0.00 | 0.00 | 99 | 1013.4 |
| 20260903033422 | 71 | 358 | 0.0 | 0.0 | 0.00 | 0.00 | 0.00 | 99 | 1013.3 |
| 20260903032917 | 71 | 358 | 0.0 | 0.0 | 0.00 | 0.00 | 0.00 | 99 | 1013.5 |
| 20260903032413 | 71 | 358 | 0.0 | 0.0 | 0.00 | 0.00 | 0.00 | 99 | 1013.5 |
| 20260903031914 | 71 | 358 | 0.0 | 0.0 | 0.00 | 0.00 | 0.00 | 99 | 1013.4 |
| 20260903031413 | 71 | 358 | 0.0 | 0.0 | 0.00 | 0.00 | 0.00 | 99 | 1013.4 |
| 20260903030908 | 71 | 358 | 0.0 | 0.0 | 0.00 | 0.00 | 0.00 | 99 | 1013.4 |
| 20260903030404 | 71 | 358 | 0.0 | 0.0 | 0.00 | 0.00 | 0.00 | 99 | 1013.4 |
| 20260903025900 | 71 | 358 | 0.0 | 0.0 | 0.00 | 0.00 | 0.00 | 99 | 1013.3 |
| 20260903025355 | 71 | 358 | 0.0 | 0.0 | 0.00 | 0.00 | 0.00 | 99 | 1013.4 |
| 20260903024850 | 71 | 358 | 0.0 | 0.0 | 0.00 | 0.00 | 0.00 | 99 | 1013.5 |
| 20260903024349 | 71 | 358 | 0.0 | 0.0 | 0.00 | 0.00 | 0.00 | 99 | 1013.2 |
| 20260903023845 | 71 | 358 | 0.0 | 0.0 | 0.00 | 0.00 | 0.00 | 99 | 1013.5 |
| 20260903023340 | 71 | 358 | 0.0 | 0.0 | 0.00 | 0.00 | 0.00 | 99 | 1013.4 |
| 20260903022835 | 71 | 358 | 0.0 | 0.0 | 0.00 | 0.00 | 0.00 | 99 | 1013.2 |
| 20260903022335 | 71 | 358 | 0.0 | 0.0 | 0.00 | 0.00 | 0.00 | 99 | 1013.1 |
| 20260903021833 | 71 | 358 | 0.0 | 0.0 | 0.00 | 0.00 | 0.00 | 99 | 1013.2 |
| 20260903021330 | 71 | 358 | 0.0 | 0.0 | 0.00 | 0.00 | 0.00 | 99 | 1013.3 |
| 20260903020829 | 72 | 358 | 0.0 | 0.0 | 0.00 | 0.00 | 0.00 | 99 | 1013.4 |
| 20260903020324 | 72 | 358 | 0.0 | 0.0 | 0.00 | 0.00 | 0.00 | 99 | 1013.2 |
| 20260903015819 | 71 | 358 | 0.0 | 0.0 | 0.00 | 0.00 | 0.00 | 98 | 1013.3 |
| 20260903015315 | 72 | 359 | 0.0 | 0.0 | 0.00 | 0.00 | 0.00 | 98 | 1013.4 |
| 20260903014810 | 72 | 359 | 0.0 | 0.0 | 0.00 | 0.00 | 0.00 | 98 | 1013.4 |
| 20260903014310 | 72 | 359 | 0.0 | 0.0 | 0.00 | 0.00 | 0.00 | 98 | 1013.9 |
| 20260903013805 | 72 | 359 | 0.0 | 0.0 | 0.00 | 0.00 | 0.00 | 97 | 1013.7 |
| 20260903013304 | 73 | 359 | 0.0 | 0.0 | 0.00 | 0.00 | 0.00 | 97 | 1013.4 |
| 20260903012803 | 73 | 359 | 0.0 | 0.0 | 0.00 | 0.00 | 0.00 | 97 | 1013.5 |
| 20260903012257 | 73 | 359 | 0.0 | 0.0 | 0.00 | 0.00 | 0.00 | 97 | 1013.4 |
| 20260903011751 | 73 | 359 | 0.0 | 0.0 | 0.00 | 0.00 | 0.00 | 96 | 1013.6 |
| 20260903011250 | 73 | 0 | 0.0 | 0.0 | 0.00 | 0.00 | 0.00 | 96 | 1013.6 |
| 20260903010746 | 74 | 359 | 0.0 | 0.0 | 0.00 | 0.00 | 0.00 | 95 | 1014.0 |
| 20260903010241 | 74 | 0 | 0.0 | 0.0 | 0.00 | 0.00 | 0.00 | 95 | 1013.4 |
| 20260903005740 | 74 | 0 | 0.0 | 0.0 | 0.00 | 0.00 | 0.00 | 94 | 1013.9 |
| 20260903005235 | 75 | 0 | 0.0 | 0.0 | 0.00 | 0.00 | 0.00 | 93 | 1014.0 |
| 20260903004730 | 75 | 0 | 0.0 | 0.0 | 0.00 | 0.00 | 0.00 | 93 | 1014.0 |
| 20260903004226 | 75 | 0 | 0.0 | 0.0 | 0.00 | 0.00 | 0.00 | 93 | 1013.9 |
| 20260903003721 | 75 | 0 | 0.0 | 0.0 | 0.00 | 0.00 | 0.00 | 93 | 1013.9 |
| 20260903003216 | 75 | 0 | 0.0 | 0.0 | 0.00 | 0.00 | 0.00 | 91 | 1014.1 |
| 20260903002711 | 76 | 0 | 0.0 | 0.0 | 0.00 | 0.00 | 0.00 | 92 | 1014.0 |
| 20260903002205 | 76 | 0 | 0.0 | 0.0 | 0.00 | 0.00 | 0.00 | 91 | 1013.7 |
| 20260903001701 | 76 | 0 | 0.0 | 0.0 | 0.00 | 0.00 | 0.00 | 90 | 1013.9 |
| 20260903001154 | 76 | 0 | 0.0 | 0.0 | 0.00 | 0.00 | 0.00 | 90 | 1013.6 |
| 20260903000650 | 77 | 0 | 0.0 | 0.0 | 0.00 | 0.00 | 0.00 | 90 | 1013.9 |
| 20260903000149 | 77 | 0 | 0.0 | 0.0 | 0.00 | 0.00 | 0.00 | 88 | 1013.7 |
| 20260902235643 | 77 | 0 | 0.0 | 0.0 | 0.00 | 0.00 | 0.00 | 87 | 1014.2 |
| 20260902235138 | 77 | 0 | 0.0 | 0.0 | 0.00 | 0.00 | 0.00 | 88 | 1014.2 |
| 20260902234632 | 78 | 0 | 0.0 | 0.0 | 0.00 | 0.00 | 0.00 | 87 | 1014.1 |
| 20260902234130 | 78 | 0 | 0.0 | 0.0 | 0.00 | 0.00 | 0.00 | 84 | 1014.1 |
| 20260902233625 | 78 | 359 | 0.0 | 0.0 | 0.00 | 0.00 | 0.00 | 83 | 1014.1 |
| 20260902233120 | 79 | 357 | 0.0 | 1.7 | 0.00 | 0.00 | 0.00 | 83 | 1014.1 |
| 20260902232614 | 79 | 1 | 0.0 | 0.0 | 0.00 | 0.00 | 0.00 | 84 | 1013.6 |
| 20260902232108 | 80 | 345 | 0.9 | 0.9 | 0.00 | 0.00 | 0.00 | 84 | 1013.7 |
| 20260902231607 | 80 | 6 | 0.0 | 0.0 | 0.00 | 0.00 | 0.00 | 81 | 1013.6 |
| 20260902231107 | 81 | 3 | 0.0 | 0.0 | 0.00 | 0.00 | 0.00 | 79 | 1013.9 |
| 20260902230603 | 81 | 355 | 0.0 | 0.0 | 0.00 | 0.00 | 0.00 | 80 | 1013.6 |
| 20260902230101 | 81 | 355 | 0.0 | 0.0 | 0.00 | 0.00 | 0.00 | 80 | 1014.0 |
| 20260902225556 | 82 | 26 | 0.0 | 0.0 | 0.00 | 0.00 | 0.00 | 76 | 1014.2 |
| 20260902225056 | 82 | 5 | 0.0 | 0.0 | 0.00 | 0.00 | 0.00 | 77 | 1014.0 |
| 20260902224555 | 82 | 19 | 0.9 | 0.9 | 0.00 | 0.00 | 0.00 | 76 | 1014.1 |
| 20260902224050 | 82 | 23 | 0.0 | 0.0 | 0.00 | 0.00 | 0.00 | 79 | 1014.0 |
| 20260902223547 | 82 | 16 | 0.0 | 0.9 | 0.00 | 0.00 | 0.00 | 78 | 1013.7 |
| 20260902223046 | 82 | 11 | 0.0 | 0.0 | 0.00 | 0.00 | 0.00 | 77 | 1013.7 |
| 20260902222545 | 82 | 345 | 0.9 | 0.9 | 0.00 | 0.00 | 0.00 | 82 | 1013.6 |
| 20260902222043 | 82 | 346 | 0.0 | 0.0 | 0.00 | 0.00 | 0.00 | 81 | 1013.7 |
| 20260902221538 | 83 | 359 | 0.0 | 0.0 | 0.00 | 0.00 | 0.00 | 79 | 1013.4 |
| 20260902221033 | 83 | 13 | 0.0 | 0.0 | 0.00 | 0.00 | 0.00 | 76 | 1013.4 |
| 20260902220528 | 83 | 357 | 0.0 | 0.0 | 0.00 | 0.00 | 0.00 | 78 | 1013.4 |
| 20260902220023 | 83 | 2 | 0.0 | 0.0 | 0.00 | 0.00 | 0.00 | 75 | 1013.5 |
| 20260902215519 | 83 | 12 | 0.0 | 0.0 | 0.00 | 0.00 | 0.00 | 75 | 1013.2 |
| 20260902215015 | 84 | 351 | 0.0 | 0.0 | 0.00 | 0.00 | 0.00 | 76 | 1013.3 |
| 20260902214514 | 84 | 16 | 0.0 | 0.0 | 0.00 | 0.00 | 0.00 | 73 | 1013.4 |
| 20260902214013 | 84 | 358 | 0.0 | 0.9 | 0.00 | 0.00 | 0.00 | 73 | 1013.6 |
| 20260902213509 | 84 | 6 | 0.9 | 1.7 | 0.00 | 0.00 | 0.00 | 72 | 1013.7 |
| 20260902213008 | 84 | 2 | 0.0 | 0.0 | 0.00 | 0.00 | 0.00 | 72 | 1013.7 |
| 20260902212504 | 85 | 358 | 0.0 | 0.0 | 0.00 | 0.00 | 0.00 | 71 | 1013.7 |
| 20260902212000 | 85 | 351 | 0.0 | 0.0 | 0.00 | 0.00 | 0.00 | 71 | 1013.9 |
| 20260902211456 | 84 | 354 | 0.0 | 0.0 | 0.00 | 0.00 | 0.00 | 71 | 1013.6 |
| 20260902210951 | 84 | 0 | 0.9 | 0.9 | 0.00 | 0.00 | 0.00 | 71 | 1013.9 |
| 20260902210445 | 84 | 1 | 2.6 | 3.5 | 0.00 | 0.00 | 0.00 | 70 | 1013.9 |
| 20260902205944 | 84 | 321 | 1.7 | 1.7 | 0.00 | 0.00 | 0.00 | 72 | 1014.2 |
| 20260902205439 | 84 | 355 | 0.0 | 0.0 | 0.00 | 0.00 | 0.00 | 71 | 1014.1 |
| 20260902204935 | 84 | 304 | 0.9 | 1.7 | 0.00 | 0.00 | 0.00 | 71 | 1014.3 |
| 20260902204434 | 84 | 350 | 0.0 | 0.0 | 0.00 | 0.00 | 0.00 | 71 | 1013.9 |
| 20260902203930 | 84 | 49 | 1.7 | 2.6 | 0.00 | 0.00 | 0.00 | 70 | 1014.0 |
| 20260902203425 | 85 | 325 | 0.9 | 0.9 | 0.00 | 0.00 | 0.00 | 73 | 1013.9 |
| 20260902202924 | 85 | 343 | 0.0 | 0.0 | 0.00 | 0.00 | 0.00 | 73 | 1013.9 |
| 20260902202420 | 84 | 309 | 0.9 | 1.7 | 0.00 | 0.00 | 0.00 | 71 | 1014.1 |
| 20260902201916 | 84 | 32 | 1.7 | 1.7 | 0.00 | 0.00 | 0.00 | 72 | 1013.9 |
| 20260902201411 | 84 | 341 | 2.6 | 3.5 | 0.00 | 0.00 | 0.00 | 72 | 1014.0 |
| 20260902200906 | 84 | 292 | 1.7 | 3.5 | 0.00 | 0.00 | 0.00 | 74 | 1014.2 |
| 20260902200401 | 84 | 49 | 1.7 | 1.7 | 0.00 | 0.00 | 0.00 | 75 | 1014.6 |
| 20260902195856 | 84 | 9 | 0.0 | 0.0 | 0.00 | 0.00 | 0.00 | 74 | 1014.4 |
| 20260902195355 | 84 | 216 | 3.5 | 7.0 | 0.00 | 0.00 | 0.00 | 76 | 1014.6 |
| 20260902194850 | 84 | 25 | 1.7 | 3.5 | 0.00 | 0.00 | 0.00 | 77 | 1014.7 |
| 20260902194345 | 85 | 298 | 0.0 | 0.9 | 0.00 | 0.00 | 0.00 | 75 | 1014.3 |
| 20260902193840 | 86 | 298 | 0.0 | 0.0 | 0.00 | 0.00 | 0.00 | 73 | 1014.2 |
| 20260902193337 | 85 | 345 | 0.0 | 0.0 | 0.00 | 0.00 | 0.00 | 75 | 1014.1 |
| 20260902192835 | 85 | 314 | 0.9 | 1.7 | 0.00 | 0.00 | 0.00 | 76 | 1014.0 |
| 20260902192333 | 84 | 3 | 0.9 | 0.9 | 0.00 | 0.00 | 0.00 | 77 | 1013.9 |
| 20260902191828 | 85 | 349 | 0.9 | 0.9 | 0.00 | 0.00 | 0.00 | 77 | 1013.6 |
| 20260902191323 | 84 | 339 | 0.0 | 0.0 | 0.00 | 0.00 | 0.00 | 78 | 1013.9 |
| 20260902190818 | 84 | 349 | 0.9 | 1.7 | 0.00 | 0.00 | 0.00 | 80 | 1014.1 |
| 20260902190317 | 83 | 343 | 1.7 | 1.7 | 0.00 | 0.00 | 0.00 | 80 | 1014.3 |
| 20260902185814 | 82 | 20 | 0.9 | 0.9 | 0.00 | 0.00 | 0.00 | 81 | 1014.6 |
| 20260902185306 | 82 | 63 | 0.9 | 1.7 | 0.00 | 0.00 | 0.00 | 80 | 1014.6 |
| 20260902184759 | 83 | 352 | 2.6 | 5.2 | 0.00 | 0.00 | 0.00 | 78 | 1014.6 |
| 20260902184249 | 83 | 13 | 0.0 | 0.9 | 0.00 | 0.00 | 0.00 | 78 | 1014.5 |
| 20260902183744 | 81 | 280 | 2.6 | 3.5 | 0.00 | 0.00 | 0.00 | 80 | 1014.8 |
| 20260902183240 | 81 | 220 | 3.5 | 3.5 | 0.00 | 0.00 | 0.00 | 82 | 1014.9 |
| 20260902182736 | 82 | 353 | 0.9 | 0.9 | 0.00 | 0.00 | 0.00 | 82 | 1015.0 |
| 20260902182233 | 82 | 4 | 0.0 | 0.9 | 0.00 | 0.00 | 0.00 | 83 | 1015.0 |
| 20260902181729 | 82 | 355 | 0.0 | 0.0 | 0.00 | 0.00 | 0.00 | 83 | 1015.0 |
| 20260902181228 | 82 | 332 | 1.7 | 1.7 | 0.00 | 0.00 | 0.00 | 82 | 1015.1 |
| 20260902180723 | 85 | 0 | 0.9 | 0.9 | 0.00 | 0.00 | 0.00 | 77 | 1015.0 |
| 20260902180219 | 88 | 39 | 0.9 | 1.7 | 0.00 | 0.00 | 0.00 | 72 | 1014.6 |
| 20260902175713 | 91 | 349 | 0.0 | 0.0 | 0.00 | 0.00 | 0.00 | 68 | 1014.6 |
| 20260902175209 | 91 | 353 | 0.0 | 0.0 | 0.00 | 0.00 | 0.00 | 67 | 1014.3 |
| 20260902174705 | 92 | 335 | 0.0 | 0.9 | 0.00 | 0.00 | 0.00 | 61 | 1014.1 |
| 20260902174201 | 93 | 336 | 0.0 | 0.9 | 0.00 | 0.00 | 0.00 | 64 | 1014.4 |
| 20260902173656 | 92 | 15 | 0.0 | 0.9 | 0.00 | 0.00 | 0.00 | 62 | 1014.4 |
| 20260902173151 | 91 | 39 | 0.0 | 0.0 | 0.00 | 0.00 | 0.00 | 64 | 1014.5 |
| 20260902172646 | 89 | 33 | 0.0 | 0.9 | 0.00 | 0.00 | 0.00 | 70 | 1014.7 |
| 20260902172145 | 90 | 351 | 0.0 | 0.0 | 0.00 | 0.00 | 0.00 | 66 | 1014.8 |
| 20260902171640 | 90 | 334 | 0.0 | 0.9 | 0.00 | 0.00 | 0.00 | 68 | 1014.9 |
| 20260902171136 | 89 | 324 | 0.0 | 0.9 | 0.00 | 0.00 | 0.00 | 72 | 1014.9 |
| 20260902170632 | 90 | 352 | 0.0 | 0.9 | 0.00 | 0.00 | 0.00 | 64 | 1014.9 |
| 20260902170127 | 90 | 342 | 0.0 | 0.9 | 0.00 | 0.00 | 0.00 | 66 | 1015.1 |